Weather History for Pueblo, CO

Change the Weather History Date:

Wednesday, January 1, 2003

  Actual Average Record
Temperature  
Mean Temperature 38 °F 30 °F  
Max Temperature 48 °F 46 °F 71 °F (1918)
Min Temperature 26 °F 14 °F -23 °F (1901)
Degree Days  
Heating Degree Days 27 35  
Month to date heating degree days 35  
Since 1 July heating degree days 2398  
Cooling Degree Days 0 0  
Month to date cooling degree days 0  
Year to date cooling degree days 0  
Moisture  
Dew Point 26 °F    
Average Humidity 58    
Maximum Humidity 81    
Minimum Humidity 39    
Precipitation  
Precipitation 0.00 in 0.01 in 0.45 in (1897)
Month to date precipitation 0.01  
Year to date precipitation 0.01  
Snow  
Snow 0.00 in 0.20 in 4.00 in (1897)
Month to date snowfall 0.2  
Since 1 July snowfall 11.7  
Snow Depth -    
Sea Level Pressure  
Sea Level Pressure 29.98 in    
Wind  
Wind Speed 20 mph (NNW)    
Max Wind Speed 32 mph    
Max Gust Speed 40 mph    
Visibility 10 miles    
Events      
T = Trace of Precipitation, MM = Missing Value Source: NWS Daily Summary

Daily Weather History Graph

Daily Weather History Graph

Search for Another Location

Airport:

Trip Planner

Search our weather history database for the weather conditions in past years. The results will help you decide how hot, cold, wet, or windy it might be!

Date:

Astronomy

Jan. 01, 2003 Rise Set
Actual Time 7:14 AM MST 4:48 PM MST
Civil Twilight 6:45 AM MST 5:17 PM MST
Nautical Twilight 6:12 AM MST 5:50 PM MST
Astronomical Twilight 5:40 AM MST 6:23 PM MST
Moon 6:14 AM MST (1/1) 3:41 PM MST (1/1)
Length of Visible Light 10h 32m
Length of Day
9h 33m
Waning Crescent, 1% of the Moon is Illuminated
Jan 1
Waning Crescent
Jan 2
New
Jan 10
First Quarter
Jan 18
Full
Jan 25
Last Quarter

Hourly Weather History & Observations

Time (MST) Temp. Windchill Dew Point Humidity Pressure Visibility Wind Dir Wind Speed Gust Speed Precip Events Conditions
12:53 AM 42.1 °F 32.8 °F 28.0 °F 58% 29.60 in 10.0 mi NNW 21.9 mph 32.2 mph N/A   Overcast
1:53 AM 41.0 °F 30.9 °F 27.0 °F 57% 29.63 in 10.0 mi NNW 24.2 mph 29.9 mph N/A   Overcast
2:53 AM 41.0 °F 31.9 °F 28.0 °F 60% 29.63 in 10.0 mi NNW 19.6 mph - N/A   Overcast
3:53 AM 39.9 °F 30.2 °F 28.0 °F 63% 29.66 in 10.0 mi NNW 20.7 mph - N/A   Overcast
4:53 AM 41.0 °F 31.9 °F 27.0 °F 57% 29.72 in 10.0 mi NNW 19.6 mph 26.5 mph N/A   Overcast
5:53 AM 41.0 °F 30.0 °F 25.0 °F 53% 29.76 in 10.0 mi NNW 28.8 mph 38.0 mph N/A   Overcast
6:53 AM 39.9 °F 28.0 °F 27.0 °F 60% 29.83 in 10.0 mi NW 32.2 mph 40.3 mph N/A   Mostly Cloudy
7:53 AM 39.9 °F 30.0 °F 27.0 °F 60% 29.92 in 10.0 mi NW 21.9 mph 27.6 mph N/A   Clear
8:53 AM 41.0 °F 31.9 °F 28.0 °F 60% 29.98 in 10.0 mi WNW 19.6 mph - N/A   Partly Cloudy
9:53 AM 42.1 °F 33.6 °F 28.9 °F 60% 30.01 in 10.0 mi NW 18.4 mph - N/A   Mostly Cloudy
10:53 AM 44.1 °F 35.2 °F 27.0 °F 51% 30.03 in 10.0 mi NNW 23.0 mph - N/A   Overcast
11:53 AM 46.9 °F - 27.0 °F 46% 30.01 in 10.0 mi NNW 24.2 mph 28.8 mph N/A   Mostly Cloudy
12:53 PM 46.0 °F 38.5 °F 24.1 °F 42% 30.03 in 10.0 mi NNW 19.6 mph - N/A   Overcast
1:53 PM 48.0 °F - 24.1 °F 39% 30.02 in 10.0 mi NNW 17.3 mph 24.2 mph N/A   Overcast
2:53 PM 46.9 °F - 26.1 °F 44% 30.06 in 10.0 mi North 19.6 mph - N/A   Overcast
3:53 PM 45.0 °F 37.6 °F 26.1 °F 48% 30.09 in 10.0 mi North 17.3 mph - N/A   Mostly Cloudy
4:53 PM 39.9 °F 32.9 °F 27.0 °F 60% 30.12 in 10.0 mi North 11.5 mph - N/A   Scattered Clouds
5:53 PM 39.0 °F 31.8 °F 27.0 °F 62% 30.15 in 10.0 mi North 11.5 mph - N/A   Mostly Cloudy
6:53 PM 37.9 °F 28.9 °F 27.0 °F 65% 30.17 in 10.0 mi North 16.1 mph - N/A   Overcast
7:53 PM 37.0 °F 28.9 °F 26.1 °F 65% 30.19 in 10.0 mi North 12.7 mph - N/A   Overcast
8:53 PM 37.0 °F 29.3 °F 25.0 °F 62% 30.23 in 10.0 mi SW 11.5 mph - N/A   Overcast
9:53 PM 35.1 °F 30.1 °F 25.0 °F 67% 30.25 in 10.0 mi WNW 5.8 mph - N/A   Overcast
10:53 PM 28.0 °F 19.3 °F 21.9 °F 78% 30.27 in 10.0 mi West 9.2 mph - N/A   Clear
11:53 PM 26.1 °F 17.6 °F 21.0 °F 81% 30.25 in 10.0 mi West 8.1 mph - N/A   Clear